Regional Weather Roundup
Issued by NWS Northern Indiana

Home | Current Version | Previous Version | Graphics & Text | Print | Product List | Glossary On
Versions: 1 2 3 4 5 6 7 8 9 10 11 12 13 14 15 16 17 18 19 20 21 22 23 24 25 26 27 28 29 30 31 32 33 34 35 36 37 38 39 40 41 42 43 44 45 46 47 48 49 50
000
ASUS43 KIWX 021000
RWRIWX

KIWX WEATHER ROUNDUP
NATIONAL WEATHER SERVICE NORTHERN INDIANA
600 AM EDT TUE JUN 02 2015

NOTE: "FAIR" INDICATES FEW OR NO CLOUDS BELOW 12,000 FEET WITH NO
SIGNIFICANT WEATHER AND/OR OBSTRUCTIONS TO VISIBILITY.

* THESE STATIONS ARE NOT UNDER NWS QUALITY CONTROL. THEY ALSO MAY NOT
  REPORT WEATHER SUCH AS PRECIPITATION OR FOG.

INZ001>027-021100-
NORTHERN INDIANA

CITY           SKY/WX    TMP DP  RH WIND       PRES   REMARKS
GARY*          CLEAR     43  41  93 CALM      30.19S
SOUTH BEND     CLEAR     44  41  89 CALM      30.19F
GOSHEN         CLEAR     44  43  96 CALM      30.19S FOG
ANGOLA*        CLEAR     43  25  49 CALM      30.19R
FORT WAYNE     PTCLDY    44  43  96 CALM      30.18R
PERU/GRISSOM   CLEAR     46  45  95 N3        30.15S

$$
INZ028>050-021100-
CENTRAL INDIANA

CITY           SKY/WX    TMP DP  RH WIND       PRES   REMARKS
LAFAYETTE      CLEAR     47  45  93 NE5       30.17R
KOKOMO*        CLEAR     46  45  93 NE6       30.16S
MUNCIE*        CLEAR     48  45  89 NE3       30.15R
INDIANAPOLIS   PTCLDY    50  45  83 NE8       30.12S

$$
MIZ043>046-050>051-056>058-064>065-071>073-077>080-021100-
SOUTHWEST LOWER MICHIGAN

CITY           SKY/WX    TMP DP  RH WIND       PRES   REMARKS
BATTLE CREEK   CLEAR     43  40  89 CALM      30.20S
BENTON HARBOR  CLEAR     42  41  96 E5        30.19R
COLDWATER*     CLEAR     42  41  98 CALM      30.19S FOG
HOLLAND        CLEAR     42  38  85 E3        30.21R
GRAND RAPIDS   PTCLDY    42  38  85 CALM      30.22R
KALAMAZOO      CLEAR     43  39  86 CALM      30.20S
STURGIS*       CLEAR     43  43 100 CALM      30.19S FOG
THREE RIVERS*    N/A     44  43  93 CALM      30.20F

$$
OHZ001>008-015>018-024>025-021100-
NORTHWEST OHIO

CITY           SKY/WX    TMP DP  RH WIND       PRES   REMARKS
DEFIANCE       CLEAR     46  42  86 N5        30.18S
FINDLAY        CLEAR     49  47  93 N8        30.15R
TOLEDO EXPRESS CLEAR     46  41  82 N3        30.17S
TOLEDO METCALF CLEAR     49  42  77 N5        30.17S
LIMA           PTCLDY    47  45  93 NE3       30.15R FOG

$$
AND FOR LAKE MICHIGAN COASTAL AND OPEN LAKE BUOY OBSERVATIONS

STATION/POSITION TEMP    WIND        PRES    VSBY  WAVE
                 AIR SEA DIR/SP/G                  HT/PER
                 (F)     (DEG/KT/KT) (MB)    (MI)  (FT/S)
CALUMET HARBOR    47        CALM       N/A
MICHIGAN CITY     47     140/  2/  3   N/A
BURNS HARBOR             190/  3/  4 1022.7S
SAINT JOSEPH      48      CALM  /  3 1022.0F
SOUTH LAKE BUOY   42 38   60/  8/  8 1022.9S         1
4 MI NW BRIDGMAN  53 55  180/ 12/ 14   N/A           1
MICHIGAN CITY     52 55  180/  4/  6   N/A           2/ 4

$$
&&



USA.gov is the U.S. government's official web portal to all federal, state and local government web resources and services.